FW8537 Weather Reports


Display with metric or nautical units.
time (UTC)temp
F
wind
direction
speed
MPH
gust
MPH
rain 1hr
in
rain 24hr
in
rain mn
in
humidity
%
barometer
mb
20260503211531 74 82 2.0 5.0 0.00 0.18 0.14 83 1012.0
20260503211528 73 86 1.0 5.0 0.00 0.18 0.14 83 1011.9
20260503211030 74 26 2.0 9.0 0.00 0.18 0.14 83 1012.0
20260503210530 73 21 2.0 9.0 0.00 0.18 0.14 84 1012.0
20260503210030 73 52 2.0 6.0 0.00 0.18 0.14 84 1012.2
20260503210020 73 18 2.0 5.0 0.00 0.18 0.14 84 1012.1
20260503205529 73 106 2.0 8.0 0.00 0.18 0.14 84 1012.2
20260503205031 73 78 2.0 8.0 0.00 0.18 0.14 84 1012.2
20260503204600 73 75 2.0 5.0 0.00 0.18 0.14 84 1012.1
20260503204531 73 54 1.0 5.0 0.00 0.18 0.14 84 1012.5
20260503204029 73 49 1.0 5.0 0.00 0.18 0.14 84 1012.5
20260503203529 73 67 1.0 3.0 0.00 0.18 0.14 83 1012.5
20260503203041 73 73 0.0 4.0 0.00 0.18 0.14 83 1012.4
20260503203029 73 73 1.0 5.0 0.00 0.18 0.14 83 1012.6
20260503202530 73 46 1.0 5.0 0.00 0.18 0.14 84 1012.6
20260503202031 73 49 1.0 4.0 0.00 0.18 0.14 84 1012.6
20260503201533 73 27 2.0 4.0 0.00 0.18 0.14 84 1012.6
20260503201528 72 27 0.0 4.0 0.00 0.18 0.14 84 1012.4
20260503201030 73 36 2.0 6.0 0.00 0.18 0.14 83 1012.6
20260503200828 73 44 2.0 9.0 0.00 0.18 0.14 83 1012.6
20260503200030 73 73 2.0 9.0 0.00 0.18 0.14 84 1012.5
20260503200006 73 73 2.0 9.0 0.00 0.18 0.14 84 1012.4
20260503195523 73 72 1.0 5.0 0.00 0.18 0.14 84 1012.5
20260503195019 73 78 2.0 7.0 0.00 0.18 0.14 84 1012.5
20260503194510 73 48 3.0 8.0 0.00 0.18 0.14 84 1012.6
20260503194504 73 49 2.0 7.0 0.00 0.18 0.14 84 1012.4
20260503194008 73 111 3.0 8.0 0.00 0.18 0.14 83 1012.6
20260503193507 73 10 2.0 6.0 0.00 0.18 0.14 83 1012.6
20260503193006 73 66 2.0 7.0 0.00 0.18 0.14 83 1012.6
20260503193004 73 66 2.0 7.0 0.00 0.18 0.14 83 1012.4
20260503192504 73 57 3.0 10.0 0.00 0.18 0.14 83 1012.6
20260503192004 73 101 3.0 10.0 0.00 0.18 0.14 83 1012.6
20260503191604 72 355 2.0 6.0 0.00 0.18 0.14 84 1012.9
20260503191502 73 28 3.0 7.0 0.00 0.18 0.14 84 1013.0
20260503191002 73 78 3.0 9.0 0.00 0.18 0.14 84 1013.0
20260503190500 73 31 3.0 9.0 0.00 0.18 0.14 85 1013.0
20260503190301 73 29 3.0 11.0 0.00 0.18 0.14 85 1013.1
20260503185759 73 55 3.0 11.0 0.00 0.18 0.14 85 1013.1
20260503185001 73 31 2.0 9.0 0.00 0.18 0.14 86 1013.1
20260503184606 72 44 3.0 10.0 0.00 0.18 0.14 86 1013.4
20260503184555 72 55 2.0 10.0 0.00 0.18 0.14 86 1013.3
20260503184539 72 56 3.0 10.0 0.00 0.18 0.14 86 1013.4
20260503184519 72 47 1.0 10.0 0.00 0.18 0.14 86 1013.3
20260503183501 72 36 2.0 8.0 0.00 0.18 0.14 86 1013.4
20260503183037 72 14 1.0 7.0 0.00 0.18 0.14 86 1013.4
20260503183002 72 14 3.0 7.0 0.00 0.18 0.14 86 1013.6
20260503182503 72 30 3.0 8.0 0.00 0.18 0.14 86 1013.6
20260503182002 72 20 3.0 8.0 0.00 0.18 0.14 86 1013.6
20260503181540 72 334 3.0 8.0 0.00 0.18 0.14 85 1013.5
20260503181502 72 45 3.0 8.0 0.00 0.18 0.14 85 1013.6
20260503181001 72 325 2.0 8.0 0.00 0.18 0.14 85 1013.6
20260503180502 72 53 3.0 8.0 0.00 0.18 0.14 86 1013.6
20260503180015 72 351 2.0 8.0 0.00 0.18 0.14 86 1013.5
20260503180002 72 351 3.0 8.0 0.00 0.18 0.14 86 1013.6
20260503175754 72 34 3.0 6.0 0.00 0.18 0.14 86 1013.6
20260503175257 72 28 2.0 5.0 0.00 0.18 0.14 86 1013.6
20260503174513 72 31 2.0 6.0 0.00 0.18 0.14 86 1013.5
20260503174509 72 31 2.0 6.0 0.00 0.18 0.14 86 1013.6
20260503174005 72 332 2.0 6.0 0.00 0.18 0.14 86 1013.6
20260503173752 72 22 2.0 6.0 0.00 0.18 0.14 86 1013.6
20260503173009 72 66 1.0 5.0 0.00 0.18 0.14 87 1013.6
20260503173004 72 63 2.0 5.0 0.00 0.18 0.14 87 1013.7
20260503172503 72 37 2.0 5.0 0.00 0.18 0.14 87 1013.7
20260503172005 72 30 2.0 7.0 0.00 0.18 0.14 87 1013.7
20260503171510 71 28 1.0 7.0 0.00 0.18 0.14 87 1013.7
20260503171502 72 28 2.0 7.0 0.00 0.18 0.14 87 1013.9
20260503171004 72 30 2.0 6.0 0.00 0.18 0.14 88 1013.9
20260503170504 72 47 3.0 7.0 0.00 0.18 0.14 88 1013.9
20260503151002 73 337 3.0 10.0 0.00 0.18 0.14 88 1013.9
20260503150501 72 11 4.0 10.0 0.00 0.18 0.14 88 1013.9
20260503131003 71 40 3.0 8.0 0.00 0.18 0.14 90 1012.6
20260503130501 71 24 4.0 10.0 0.00 0.18 0.14 91 1012.6
20260503110502 69 46 4.0 8.0 0.00 0.18 0.14 94 1011.1
20260503110302 69 330 4.0 9.0 0.00 0.18 0.14 94 1010.9
20260503090502 70 336 2.0 5.0 0.01 0.05 0.01 93 1010.5
20260503081510 70 290 0.0 2.0 0.00 0.04 0.00 92 1010.3
20260503081452 71 290 1.0 2.0 0.00 0.04 0.00 92 1010.4
20260503080952 71 325 0.0 2.0 0.00 0.04 0.00 92 1010.4
20260503080448 71 325 0.0 2.0 0.00 0.04 0.00 92 1010.4
20260503072939 71 276 0.0 1.0 0.00 0.04 0.00 92 1009.7
20260503072438 71 279 0.0 1.0 0.00 0.04 0.00 92 1009.7
20260503071940 71 279 0.0 1.0 0.00 0.04 0.00 92 1009.7
20260503071734 71 279 0.0 1.0 0.00 0.04 0.00 92 1009.8
20260503071655 70 279 0.0 1.0 0.00 0.04 0.00 92 1009.6
20260503071228 71 288 0.0 1.0 0.00 0.04 0.00 92 1009.8
20260503070436 71 288 0.0 1.0 0.00 0.04 0.00 92 1009.8
20260503060231 71 263 1.0 4.0 0.00 0.04 0.00 92 1010.4
20260503060153 71 304 1.0 4.0 0.00 0.04 0.00 92 1009.8
20260503054930 71 294 1.0 4.0 0.00 0.04 0.00 92 1010.4
20260503054547 72 277 1.0 4.0 0.00 0.04 0.00 92 1010.6
20260503054538 71 344 1.0 4.0 0.00 0.04 0.00 92 1010.5
20260503054519 72 263 1.0 4.0 0.00 0.04 0.00 92 1010.6
20260503053430 72 309 1.0 4.0 0.00 0.04 0.00 92 1010.6
20260503053014 71 270 0.0 3.0 0.00 0.04 0.00 92 1010.6
20260503052933 72 250 0.0 3.0 0.00 0.04 0.00 92 1010.7
20260503052736 72 259 0.0 2.0 0.00 0.04 0.00 92 1010.7
20260503051930 72 261 0.0 1.0 0.00 0.04 0.00 92 1010.7
20260503051506 72 259 0.0 1.0 0.00 0.04 0.00 92 1010.5
20260503051429 72 269 0.0 1.0 0.00 0.04 0.00 92 1010.6
20260503050930 72 207 0.0 1.0 0.00 0.04 0.00 92 1010.6
20260503050429 72 247 0.0 2.0 0.00 0.04 0.00 92 1010.6
20260503050007 72 247 0.0 2.0 0.00 0.04 0.00 92 1010.4
20260503045926 72 255 0.0 2.0 0.00 0.04 0.00 92 1010.5
20260503045426 73 229 0.0 2.0 0.00 0.04 0.00 91 1010.5
20260503044925 73 238 0.0 2.0 0.00 0.04 0.00 91 1010.5
20260503044618 72 257 0.0 2.0 0.00 0.04 0.00 91 1010.4
20260503044425 73 269 0.0 2.0 0.00 0.04 0.00 91 1010.1
20260503043925 73 221 1.0 2.0 0.00 0.04 0.00 91 1010.1
20260503043424 73 233 0.0 2.0 0.00 0.04 0.00 91 1010.1
20260503043048 72 234 0.0 1.0 0.00 0.04 0.00 91 1010.0
20260503042923 73 263 0.0 1.0 0.00 0.04 0.00 91 1009.8
20260503042423 73 331 0.0 2.0 0.00 0.04 0.00 90 1009.8
20260503041925 73 331 0.0 2.0 0.00 0.04 0.00 90 1009.8
20260503041535 73 334 0.0 2.0 0.00 0.04 0.00 90 1010.0
20260503041421 73 273 0.0 2.0 0.00 0.04 0.00 90 1010.1
20260503040915 73 271 0.0 2.0 0.00 0.04 0.00 90 1010.1
20260503040405 73 287 1.0 3.0 0.00 0.04 0.00 90 1010.1
20260503040027 73 287 0.0 3.0 0.00 0.04 0.04 90 1010.1
20260503035903 73 288 1.0 4.0 0.00 0.04 0.04 90 1010.2
20260503035403 73 288 1.0 4.0 0.00 0.04 0.04 90 1010.2
20260503034905 74 266 1.0 4.0 0.00 0.04 0.04 90 1010.2
20260503034504 73 286 0.0 4.0 0.00 0.04 0.04 90 1009.8
20260503034404 74 307 1.0 4.0 0.00 0.04 0.04 90 1009.9
20260503033903 74 277 1.0 5.0 0.00 0.04 0.04 90 1009.9
20260503033700 74 297 2.0 7.0 0.00 0.04 0.04 90 1009.9
20260503033004 73 240 1.0 7.0 0.00 0.04 0.04 89 1009.3
20260503032905 74 319 2.0 7.0 0.00 0.04 0.04 89 1009.4
20260503032403 74 288 2.0 5.0 0.00 0.04 0.04 89 1009.4
20260503031903 74 250 1.0 4.0 0.00 0.04 0.04 89 1009.4
20260503031659 74 297 1.0 4.0 0.00 0.04 0.04 89 1008.9
20260503031617 74 266 1.0 4.0 0.00 0.04 0.04 89 1009.3
20260503030903 74 209 1.0 4.0 0.00 0.04 0.04 89 1008.9
20260503030403 74 213 1.0 4.0 0.00 0.04 0.04 89 1008.9
20260503030216 74 282 1.0 4.0 0.00 0.04 0.04 89 1007.8
20260503030116 74 289 0.0 4.0 0.00 0.04 0.04 89 1008.7
20260503025701 74 295 1.0 6.0 0.01 0.04 0.04 89 1007.8
20260503024905 74 273 1.0 6.0 0.01 0.04 0.04 89 1007.8
20260503024503 74 97 0.0 2.0 0.01 0.04 0.04 89 1008.3
20260503024404 74 266 0.0 2.0 0.01 0.04 0.04 89 1008.4
20260503023905 74 107 0.0 2.0 0.01 0.04 0.04 89 1008.4
20260503023401 74 284 0.0 1.0 0.01 0.04 0.04 89 1008.4
20260503023006 74 284 0.0 3.0 0.01 0.04 0.04 88 1007.3
20260503022903 74 284 0.0 3.0 0.01 0.04 0.04 89 1007.4
20260503022405 74 284 2.0 6.0 0.01 0.04 0.04 89 1007.4
20260503021905 74 209 2.0 6.0 0.01 0.04 0.04 89 1007.4
20260503021505 74 141 2.0 5.0 0.01 0.04 0.04 89 1007.8
20260503021402 74 105 1.0 5.0 0.01 0.04 0.04 88 1007.9
20260503021211 75 125 1.0 4.0 0.01 0.04 0.04 88 1007.9
20260503020657 75 187 1.0 4.0 0.01 0.04 0.04 87 1007.9
20260503020005 75 157 0.0 5.0 0.01 0.04 0.04 87 1008.1
20260503015844 75 270 1.0 5.0 0.01 0.04 0.03 86 1008.2
20260503015331 76 150 1.0 4.0 0.00 0.03 0.03 86 1008.2
20260503014831 76 121 2.0 4.0 0.00 0.03 0.03 85 1008.2
20260503014505 75 202 1.0 4.0 0.00 0.03 0.03 85 1007.9
20260503014330 76 159 1.0 4.0 0.00 0.03 0.03 85 1008.0
20260503014136 76 208 1.0 3.0 0.00 0.03 0.03 84 1008.0
20260503013329 76 207 1.0 3.0 0.00 0.03 0.03 84 1008.0
20260503013006 75 211 0.0 3.0 0.00 0.03 0.03 84 1008.2
20260503012829 76 207 0.0 3.0 0.00 0.03 0.03 84 1008.3
20260503012329 76 196 1.0 3.0 0.00 0.03 0.03 84 1008.3
20260503011832 76 217 1.0 3.0 0.00 0.03 0.03 84 1008.3
20260503011517 76 225 1.0 3.0 0.00 0.03 0.03 84 1008.0
20260503011328 76 208 0.0 1.0 0.00 0.03 0.03 84 1008.1
20260503010830 76 107 0.0 1.0 0.00 0.03 0.03 84 1008.1
20260503010329 76 107 0.0 1.0 0.00 0.03 0.03 84 1008.1
20260503010003 76 107 0.0 1.0 0.00 0.03 0.03 84 1007.8
20260503005829 76 107 0.0 1.0 0.00 0.03 0.03 84 1007.9
20260503005331 76 107 1.0 3.0 0.00 0.03 0.03 83 1007.9
20260503004829 76 107 1.0 3.0 0.00 0.03 0.03 83 1007.9
20260503004511 76 117 1.0 3.0 0.00 0.03 0.03 84 1008.3
20260503004328 76 126 0.0 2.0 0.00 0.03 0.03 83 1008.4
20260503003830 76 273 0.0 1.0 0.00 0.03 0.03 82 1008.4
20260503003640 76 273 0.0 3.0 0.00 0.03 0.03 82 1008.4
20260503003005 76 273 0.0 5.0 0.00 0.03 0.03 82 1008.0
20260503002830 76 321 1.0 5.0 0.00 0.03 0.03 82 1008.1
20260503002638 76 250 1.0 5.0 0.00 0.03 0.03 82 1008.1
20260503001831 76 267 1.0 3.0 0.00 0.03 0.03 81 1008.1
20260503001505 76 282 1.0 2.0 0.00 0.03 0.03 81 1008.1
20260503001332 76 289 1.0 2.0 0.00 0.03 0.03 81 1008.2
20260503000830 76 315 0.0 4.0 0.00 0.03 0.03 81 1008.2
20260503000330 77 242 1.0 5.0 0.00 0.03 0.03 81 1008.2
20260502235830 77 293 2.0 7.0 0.00 0.03 0.03 80 1008.4
20260502235631 77 318 3.0 9.0 0.00 0.03 0.03 80 1008.4
20260502235134 77 300 3.0 9.0 0.03 0.03 0.03 79 1008.4
20260502234551 76 314 3.0 9.0 0.03 0.03 0.03 79 1008.3
20260502234326 77 286 3.0 7.0 0.03 0.03 0.03 79 1008.4
20260502233820 76 309 2.0 6.0 0.03 0.03 0.03 80 1008.4
20260502233310 76 273 1.0 5.0 0.03 0.03 0.03 81 1008.4
20260502233034 76 298 1.0 2.0 0.03 0.03 0.03 82 1007.8
20260502232810 76 286 0.0 2.0 0.03 0.03 0.03 83 1007.9
20260502232311 76 265 0.0 1.0 0.03 0.03 0.03 84 1007.9
20260502231809 76 269 0.0 1.0 0.03 0.03 0.03 84 1007.9
20260502231535 75 269 0.0 1.0 0.03 0.03 0.03 84 1007.4
20260502231307 76 269 0.0 2.0 0.03 0.03 0.03 83 1007.5
20260502230808 76 299 0.0 2.0 0.03 0.03 0.03 83 1007.5
20260502230304 77 273 0.0 3.0 0.03 0.03 0.03 81 1007.5
20260502230021 77 302 0.0 3.0 0.03 0.03 0.03 80 1007.2
20260502225805 78 302 2.0 9.0 0.03 0.03 0.03 78 1007.4
20260502224805 81 295 4.0 8.0 0.00 0.00 0.00 70 1007.4
20260502224514 82 262 4.0 8.0 0.00 0.00 0.00 68 1006.7
20260502224307 82 309 4.0 8.0 0.00 0.00 0.00 67 1006.9
20260502223806 83 345 4.0 11.0 0.00 0.00 0.00 69 1006.9
20260502223304 84 267 6.0 13.0 0.00 0.00 0.00 69 1006.9
20260502223006 84 28 5.0 13.0 0.00 0.00 0.00 69 1006.7
20260502222805 85 328 5.0 13.0 0.00 0.00 0.00 69 1006.8
20260502222305 86 285 3.0 7.0 0.00 0.00 0.00 69 1006.8
20260502221805 86 323 3.0 8.0 0.00 0.00 0.00 68 1006.8
20260502221504 86 290 3.0 8.0 0.00 0.00 0.00 68 1006.4
20260502221302 86 303 3.0 8.0 0.00 0.00 0.00 68 1006.6
20260502220805 87 324 2.0 6.0 0.00 0.00 0.00 68 1006.6
20260502220302 87 325 3.0 6.0 0.00 0.00 0.00 67 1006.6
20260502220015 87 340 2.0 8.0 0.00 0.00 0.00 67 1006.4
20260502215802 87 315 3.0 8.0 0.00 0.00 0.00 67 1006.5
20260502215305 88 304 3.0 11.0 0.00 0.00 0.00 66 1006.5
20260502214803 88 298 3.0 11.0 0.00 0.00 0.00 65 1006.5
20260502214617 88 269 2.0 10.0 0.00 0.00 0.00 64 1006.7
20260502214514 88 340 3.0 10.0 0.00 0.00 0.00 65 1006.6
20260502213803 89 283 2.0 9.0 0.00 0.00 0.00 64 1006.7
20260502213308 89 288 3.0 9.0 0.00 0.00 0.00 63 1006.7
20260502213053 89 292 3.0 9.0 0.00 0.00 0.00 63 1006.6
20260502212808 89 303 4.0 9.0 0.00 0.00 0.00 62 1006.3
20260502212305 90 269 4.0 9.0 0.00 0.00 0.00 62 1006.3
20260502211805 90 252 3.0 8.0 0.00 0.00 0.00 61 1006.3